GW3122 Weather Reports


time (UTC)temp
F
wind
direction
speed
knots
gust
knots
rain 1hr
in
rain 24hr
in
rain mn
in
humidity
%
barometer
mb
20260504050107 56 200 0.9 3.5 0.00 0.00 0.00 58 1012.6
20260504044601 56 200 1.7 5.2 0.00 0.00 0.00 57 1012.4
20260504043055 56 194 1.7 4.3 0.00 0.00 0.00 57 1012.4
20260504041558 56 181 1.7 3.5 0.00 0.00 0.00 56 1012.2
20260504040029 54 187 1.7 6.1 0.00 0.00 0.00 58 1012.3
20260504034524 55 171 1.7 5.2 0.00 0.00 0.00 57 1012.2
20260504033017 55 169 2.6 5.2 0.00 0.00 0.00 56 1012.3
20260504031513 55 180 2.6 6.1 0.00 0.00 0.00 55 1012.1
20260504024529 57 188 3.5 8.7 0.00 0.00 0.00 53 1011.9
20260504023009 57 171 5.2 9.6 0.00 0.00 0.00 52 1011.5
20260504021516 57 174 6.1 10.4 0.00 0.00 0.00 52 1011.4
20260504020059 57 162 4.3 9.6 0.00 0.00 0.00 52 1011.5
20260504014606 57 188 6.1 8.7 0.00 0.00 0.00 53 1011.3
20260504013101 57 196 4.3 10.4 0.00 0.00 0.00 53 1011.3
20260504011552 58 186 6.1 12.2 0.00 0.00 0.00 53 1011.3
20260504010033 58 180 6.1 10.4 0.00 0.00 0.00 53 1011.3
20260504004530 58 178 5.2 9.6 0.00 0.00 0.00 51 1011.4
20260504003016 60 206 7.0 11.3 0.00 0.00 0.00 50 1011.5
20260504001507 60 175 7.0 10.4 0.00 0.00 0.00 50 1011.7
20260504000112 60 173 5.2 10.4 0.00 0.00 0.00 50 1011.8
20260503234547 60 159 4.3 9.6 0.00 0.00 0.00 50 1011.9
20260503233032 60 171 4.3 8.7 0.00 0.00 0.00 49 1012.1
20260503231529 61 166 3.5 7.0 0.00 0.00 0.00 48 1012.1
20260503230057 62 196 4.3 8.7 0.00 0.00 0.00 48 1012.2
20260503224547 62 182 3.5 8.7 0.00 0.00 0.00 47 1012.3
20260503223049 62 146 5.2 8.7 0.00 0.00 0.00 47 1012.3
20260503221551 63 168 4.3 8.7 0.00 0.00 0.00 46 1012.3
20260503220019 63 188 5.2 9.6 0.00 0.00 0.00 46 1012.5
20260503214511 64 166 5.2 12.2 0.00 0.00 0.00 45 1012.7
20260503213002 63 151 5.2 10.4 0.00 0.00 0.00 45 1012.7
20260503211621 63 191 3.5 9.6 0.00 0.00 0.00 45 1012.4
20260503210048 63 175 3.5 7.0 0.00 0.00 0.00 45 1012.6
20260503204551 64 192 4.3 8.7 0.00 0.00 0.00 43 1012.7
20260503203106 65 178 5.2 8.7 0.00 0.00 0.00 42 1012.7
20260503201556 65 172 4.3 8.7 0.00 0.00 0.00 41 1012.8